This demonstration page uses our WeatherBlox Daily Observations layout. Learn more.

Left ArrowRight Arrow

Hourly Observations for April 12, 2021

Temp ( °F °C ) Dew Point ( °F °C ) Humidity (%) Winds ( mph kmh ) Pressure ( in mb ) Visibility ( mi km ) Precip ( " mm )
12:53 am 00:53 Clear 43 6.1 30 -1.1 60 60 NNW 24 39 29.99 1016 10 16 0.00 0.00
1:53 am 01:53 Clear 41 5 31 -0.6 67 67 NNW 15 24 30.00 1016 10 16 0.00 0.00
2:53 am 02:53 Mostly Clear 40 4.4 32 0 73 73 N 16 26 29.98 1015 10 16 0.00 0.00
3:53 am 03:53 Mostly Cloudy 40 4.4 32 0 73 73 NNW 16 26 29.99 1016 10 16 0.00 0.00
4:53 am 04:53 Mostly Cloudy 40 4.4 31 -0.6 70 70 NNW 16 26 30.06 1018 10 16 0.00 0.00
5:53 am 05:53 Clear 39 3.9 29 -1.7 67 67 NNW 17 28 30.04 1017 10 16 0.00 0.00
6:53 am 06:53 Cloudy 38 3.3 29 -1.7 70 70 NW 16 26 30.06 1018 10 16 0.00 0.00
7:53 am 07:53 Cloudy 38 3.3 28 -2.2 68 68 NW 12 19 30.09 1019 10 16 0.00 0.00
8:53 am 08:53 Sunny 40 4.4 26 -3.3 58 58 NNW 21 33 30.10 1019 10 16 0.00 0.00
9:53 am 09:53 Sunny 43 6.1 25 -3.9 49 49 NNW 18 30 30.11 1020 10 16 0.00 0.00
10:53 am 10:53 Sunny 46 7.8 25 -3.9 44 44 NNW 18 30 30.11 1020 10 16 0.00 0.00
11:53 am 11:53 Sunny 48 8.9 25 -3.9 41 41 NW 18 30 30.10 1019 10 16 0.00 0.00
12:53 pm 12:53 Sunny 51 10.6 25 -3.9 36 36 NW 17 28 30.09 1019 10 16 0.00 0.00
1:53 pm 13:53 Sunny 53 11.7 25 -3.9 34 34 NW 14 22 30.08 1019 10 16 0.00 0.00
2:53 pm 14:53 Sunny 55 12.8 23 -5 29 29 NW 13 20 30.06 1018 10 16 0.00 0.00
3:53 pm 15:53 Sunny 57 13.9 24 -4.4 28 28 NNW 16 26 30.04 1017 10 16 0.00 0.00
4:53 pm 16:53 Sunny 58 14.4 22 -5.6 25 25 NW 20 31 30.04 1017 10 16 0.00 0.00
5:53 pm 17:53 Mostly Sunny 57 13.9 23 -5 27 27 NNW 13 20 30.05 1018 10 16 0.00 0.00
6:53 pm 18:53 Sunny 56 13.3 21 -6.1 26 26 N 15 24 30.07 1018 10 16 0.00 0.00
7:53 pm 19:53 Sunny 51 10.6 23 -5 33 33 N 10 17 30.09 1019 10 16 0.00 0.00
8:53 pm 20:53 Clear 47 8.3 23 -5 39 39 N 12 19 30.12 1020 10 16 0.00 0.00
9:53 pm 21:53 Clear 41 5 24 -4.4 51 51 N 6 9 30.16 1021 10 16 0.00 0.00
10:53 pm 22:53 Clear 38 3.3 26 -3.3 62 62 N 9 15 30.19 1023 10 16 0.00 0.00
11:53 pm 23:53 Clear 39 3.9 25 -3.9 57 57 NNW 10 17 30.22 1023 10 16 0.00 0.00

Powered by AerisWeather